Flag for Germany Weather past 2 weeks in Gera, Thuringia, Germany

Now
47 °F

Overcast.


Feels Like: 44 °F
Forecast: 44 / 56 °F
Wind: 7 mph from South

Location: Gera-Leumnitz

Current Time: Oct 25, 2014 at 12:18:57 PM

Latest Report: Oct 25, 2014 at 11:00 AM


Visibility: 13 mi

Pressure: 30.14 "Hg

Humidity: 84%

Dew point: 43 °F

Location of GeraLocation

Historic Weather in Gera — Graph

°F

Gera temperature yesterday

Maximum temperature yesterday: 55 °F (at 3:00 PM)
Minimum temperature yesterday: 42 °F (at 11:00 PM)
Average temperature yesterday: 49 °F

Past Weeks' High & Low Weather Summary

 TemperatureHumidityPressure
High70 °F (Oct 19, 4:00 PM)99% (Oct 11, 8:00 AM)30.26 "Hg (Oct 11, 8:00 AM)
Low39 °F (Oct 22, 8:00 AM)55% (Oct 15, 4:00 PM)29.50 "Hg (Oct 21, 9:00 PM)
Average54 °F85%29.95 "Hg
* Reported Oct 10 11:00 AM — Oct 25 11:00 AM, Gera, Weather by CustomWeather, © 2014

Note: Actual official high and low records may vary slightly from our data, if they occured in-between our weather recording intervals... More about our weather records

Advertising

Gera weather history for previous 24 hours

 ConditionsComfort  
Time TempWeatherWind HumidityBarometerVisibility
11:00 AM
Oct 25
47 °FOvercast.7 mph84%30.14 "Hg12 mi
10:00 AM46 °FOvercast.7 mph87%30.14 "Hg10 mi
9:00 AM43 °FOvercast.6 mph92%30.15 "Hg8 mi
8:00 AM42 °FOvercast.6 mph93%30.14 "Hg6 mi
7:00 AM42 °FPassing clouds.6 mph93%30.14 "Hg7 mi
6:00 AM42 °FPassing clouds.6 mph93%30.15 "Hg6 mi
5:00 AM42 °FOvercast.6 mph93%30.15 "Hg5 mi
4:00 AM42 °FOvercast.7 mph93%30.15 "Hg5 mi
3:00 AM42 °FPassing clouds.6 mph93%30.17 "Hg5 mi
2:00 AM42 °FFog.6 mph93%30.17 "Hg4 mi
1:00 AM42 °FFog.5 mph93%30.18 "Hg4 mi
12:00 AM42 °FFog.5 mph94%30.18 "Hg4 mi
11:00 PM
Oct 24
42 °FFog.3 mph96%30.19 "Hg4 mi
10:00 PM44 °FClear.5 mph91%30.18 "Hg7 mi
9:00 PM46 °FPassing clouds.3 mph86%30.17 "Hg12 mi
8:00 PM46 °FPassing clouds.2 mph87%30.17 "Hg16 mi
7:00 PM49 °FPassing clouds.2 mph79%30.16 "Hg19 mi
6:00 PM51 °FScattered clouds.2 mph76%30.17 "Hg22 mi
5:00 PM53 °FPartly sunny.2 mph70%30.17 "Hg22 mi
4:00 PM54 °FScattered clouds.3 mph64%30.18 "Hg19 mi
3:00 PM55 °FPartly sunny.3 mph65%30.19 "Hg19 mi
2:00 PM53 °FScattered clouds.2 mph69%30.20 "Hg19 mi
1:00 PM54 °FScattered clouds.3 mph64%30.23 "Hg17 mi
12:00 PM52 °FScattered clouds.3 mph78%30.24 "Hg16 mi
Weather by CustomWeather, © 2014

See weather overviewHow to use our weather pages